EN

Hourly Weather Salta

Today, 16 September, Thursday

Time Temperature Precipitation Wind Pressure Humidity
00:00 +9°C° 0 mm 0 mps 654 mmHg 51%
01:00 +9°C° 0 mm 0 mps 653 mmHg 52%
02:00 +9°C° 0 mm 1 mps 653 mmHg 52%
03:00 +9°C° 0 mm 1 mps 653 mmHg 53%
04:00 +9°C° 0 mm 1 mps 653 mmHg 54%
05:00 +8°C° 0 mm 1 mps 653 mmHg 55%
06:00 +10°C° 0 mm 1 mps 654 mmHg 50%
07:00 +12°C° 0 mm 1 mps 655 mmHg 45%
08:00 +14°C° 0 mm 1 mps 656 mmHg 40%
09:00 +16°C° 0 mm 1 mps 656 mmHg 36%
10:00 +18°C° 0 mm 2 mps 656 mmHg 32%
11:00 +20°C° 0 mm 2 mps 657 mmHg 28%
12:00 +21°C° 0 mm 2 mps 656 mmHg 26%
13:00 +21°C° 0 mm 3 mps 655 mmHg 25%
14:00 +22°C° 0 mm 3 mps 654 mmHg 23%
15:00 +22°C° 0 mm 3 mps 654 mmHg 24%
16:00 +21°C° 0 mm 3 mps 653 mmHg 25%
17:00 +21°C° 0 mm 3 mps 653 mmHg 25%
18:00 +19°C° 0 mm 2 mps 653 mmHg 32%
19:00 +16°C° 0 mm 2 mps 653 mmHg 38%
20:00 +14°C° 0 mm 1 mps 652 mmHg 44%
21:00 +13°C° 0 mm 1 mps 652 mmHg 46%
22:00 +13°C° 0 mm 1 mps 652 mmHg 48%
23:00 +12°C° 0 mm 1 mps 652 mmHg 50%

Tomorrow, 17 September, Friday

Time Temperature Precipitation Wind Pressure Humidity
00:00 +12°C° 0 mm 1 mps 652 mmHg 51%
01:00 +11°C° 0 mm 1 mps 651 mmHg 51%
02:00 +11°C° 0 mm 1 mps 650 mmHg 52%
03:00 +11°C° 0 mm 1 mps 650 mmHg 51%
04:00 +11°C° 0 mm 1 mps 650 mmHg 51%
05:00 +10°C° 0 mm 1 mps 649 mmHg 50%
06:00 +12°C° 0 mm 1 mps 650 mmHg 46%
07:00 +14°C° 0 mm 1 mps 651 mmHg 41%
08:00 +16°C° 0 mm 1 mps 652 mmHg 36%
09:00 +19°C° 0 mm 1 mps 652 mmHg 32%
10:00 +21°C° 0 mm 2 mps 652 mmHg 28%
11:00 +24°C° 0 mm 2 mps 652 mmHg 24%
12:00 +25°C° 0 mm 2 mps 652 mmHg 23%
13:00 +26°C° 0 mm 3 mps 651 mmHg 21%
14:00 +27°C° 0 mm 3 mps 651 mmHg 20%
15:00 +27°C° 0 mm 3 mps 651 mmHg 21%
16:00 +26°C° 0 mm 3 mps 650 mmHg 22%
17:00 +26°C° 0 mm 2 mps 650 mmHg 23%
18:00 +23°C° 0 mm 2 mps 650 mmHg 28%
19:00 +21°C° 0 mm 1 mps 650 mmHg 34%
20:00 +18°C° 0 mm 1 mps 651 mmHg 39%
21:00 +16°C° 0 mm 1 mps 650 mmHg 40%
22:00 +16°C° 0 mm 1 mps 650 mmHg 42%
23:00 +15°C° 0 mm 1 mps 650 mmHg 43%

Day after tomorrow, 18 September, Saturday

Time Temperature Precipitation Wind Pressure Humidity
00:00 +15°C° 0 mm 1 mps 650 mmHg 41%
01:00 +16°C° 0 mm 1 mps 649 mmHg 40%
02:00 +16°C° 0 mm 1 mps 649 mmHg 39%
03:00 +15°C° 0 mm 1 mps 649 mmHg 39%
04:00 +15°C° 0 mm 1 mps 649 mmHg 40%
05:00 +15°C° 0 mm 1 mps 648 mmHg 40%
06:00 +16°C° 0 mm 1 mps 649 mmHg 37%
07:00 +19°C° 0 mm 1 mps 650 mmHg 34%
08:00 +18°C° 0 mm 0 mps 651 mmHg 32%
09:00 +22°C° 0 mm 1 mps 651 mmHg 30%
10:00 +24°C° 0 mm 1 mps 651 mmHg 28%
11:00 +26°C° 0 mm 2 mps 651 mmHg 26%
12:00 +27°C° 0 mm 2 mps 651 mmHg 25%
13:00 +28°C° 0 mm 3 mps 650 mmHg 24%
14:00 +29°C° 0 mm 3 mps 649 mmHg 23%
15:00 +28°C° 0 mm 3 mps 649 mmHg 25%
16:00 +28°C° 0 mm 3 mps 649 mmHg 26%
17:00 +27°C° 0 mm 2 mps 649 mmHg 27%
18:00 +25°C° 0 mm 2 mps 649 mmHg 33%
19:00 +23°C° 0 mm 1 mps 649 mmHg 39%
20:00 +20°C° 0 mm 1 mps 649 mmHg 45%
21:00 +20°C° 0 mm 1 mps 649 mmHg 46%
22:00 +20°C° 0 mm 1 mps 649 mmHg 46%
23:00 +19°C° 0 mm 1 mps 649 mmHg 47%

19 September, Sunday

Time Temperature Precipitation Wind Pressure Humidity
00:00 +19°C° 0 mm 1 mps 649 mmHg 47%
01:00 +19°C° 0 mm 1 mps 648 mmHg 48%
02:00 +17°C° 0 mm 2 mps 648 mmHg 48%
03:00 +17°C° 0 mm 2 mps 648 mmHg 48%
04:00 +17°C° 0 mm 2 mps 647 mmHg 48%
05:00 +16°C° 0 mm 2 mps 647 mmHg 49%
06:00 +19°C° 0 mm 1 mps 648 mmHg 45%
07:00 +21°C° 0 mm 1 mps 649 mmHg 41%
08:00 +23°C° 0 mm 1 mps 650 mmHg 37%
09:00 +25°C° 0 mm 1 mps 650 mmHg 34%
10:00 +27°C° 0 mm 2 mps 650 mmHg 32%
11:00 +29°C° 0 mm 2 mps 650 mmHg 29%
12:00 +30°C° 0 mm 3 mps 649 mmHg 28%
13:00 +31°C° 0 mm 3 mps 648 mmHg 27%
14:00 +33°C° 0 mm 3 mps 648 mmHg 26%
15:00 +33°C° 0 mm 3 mps 647 mmHg 27%
16:00 +31°C° 0 mm 3 mps 647 mmHg 29%
17:00 +31°C° 0 mm 3 mps 647 mmHg 31%
18:00 +29°C° 0 mm 3 mps 647 mmHg 36%
19:00 +27°C° 0 mm 2 mps 647 mmHg 42%
20:00 +24°C° 0 mm 1 mps 648 mmHg 47%
21:00 +24°C° 0 mm 2 mps 648 mmHg 48%
22:00 +24°C° 0 mm 2 mps 648 mmHg 49%
23:00 +23°C° 0 mm 2 mps 648 mmHg 50%

20 September, Monday

Time Temperature Precipitation Wind Pressure Humidity
00:00 +23°C° 0 mm 2 mps 648 mmHg 51%
01:00 +21°C° 0 mm 2 mps 647 mmHg 51%
02:00 +22°C° 0 mm 1 mps 647 mmHg 51%
03:00 +22°C° 0 mm 1 mps 647 mmHg 51%
04:00 +21°C° 0 mm 1 mps 647 mmHg 51%
05:00 +21°C° 0 mm 1 mps 647 mmHg 51%
06:00 +22°C° 0 mm 1 mps 648 mmHg 48%
07:00 +24°C° 0 mm 1 mps 649 mmHg 45%
08:00 +25°C° 0 mm 1 mps 650 mmHg 42%
09:00 +27°C° 0 mm 2 mps 650 mmHg 40%
10:00 +29°C° 0 mm 2 mps 650 mmHg 38%
11:00 +30°C° 0 mm 3 mps 650 mmHg 37%
12:00 +30°C° 0,1 mm 4 mps 650 mmHg 38%
13:00 +30°C° 0,1 mm 5 mps 650 mmHg 39%
14:00 +30°C° 0,1 mm 5 mps 649 mmHg 41%
15:00 +28°C° 0,9 mm 5 mps 649 mmHg 52%
16:00 +25°C° 0,9 mm 4 mps 649 mmHg 64%
17:00 +22°C° 0,9 mm 4 mps 649 mmHg 75%
18:00 +21°C° 0,8 mm 3 mps 650 mmHg 80%
19:00 +20°C° 0,8 mm 3 mps 650 mmHg 85%
20:00 +19°C° 0,8 mm 2 mps 651 mmHg 90%
21:00 +19°C° 1 mm 2 mps 651 mmHg 91%
22:00 +20°C° 1 mm 1 mps 651 mmHg 91%
23:00 +19°C° 1 mm 1 mps 652 mmHg 91%

21 September, Tuesday

Time Temperature Precipitation Wind Pressure Humidity
00:00 +19°C° 0,9 mm 1 mps 651 mmHg 92%
01:00 +19°C° 0,9 mm 1 mps 651 mmHg 92%
02:00 +19°C° 0,9 mm 1 mps 651 mmHg 92%
03:00 +19°C° 1,7 mm 1 mps 651 mmHg 93%
04:00 +18°C° 1,7 mm 1 mps 651 mmHg 93%
05:00 +18°C° 1,7 mm 1 mps 651 mmHg 93%
06:00 +18°C° 0,8 mm 1 mps 652 mmHg 93%
07:00 +18°C° 0,8 mm 1 mps 652 mmHg 92%
08:00 +18°C° 0,8 mm 1 mps 653 mmHg 91%
09:00 +18°C° 0 mm 1 mps 652 mmHg 88%
10:00 +19°C° 0 mm 1 mps 652 mmHg 86%
11:00 +19°C° 0 mm 1 mps 652 mmHg 83%
12:00 +20°C° 0,1 mm 1 mps 652 mmHg 80%
13:00 +20°C° 0,1 mm 2 mps 651 mmHg 77%
14:00 +20°C° 0,1 mm 2 mps 651 mmHg 74%
15:00 +20°C° 0,1 mm 2 mps 650 mmHg 75%
16:00 +20°C° 0,1 mm 2 mps 650 mmHg 76%
17:00 +19°C° 0,1 mm 2 mps 650 mmHg 77%
18:00 +18°C° 0 mm 2 mps 650 mmHg 81%
19:00 +18°C° 0 mm 2 mps 650 mmHg 84%
20:00 +18°C° 0 mm 1 mps 651 mmHg 88%
21:00 +18°C° 0,1 mm 1 mps 651 mmHg 88%
22:00 +16°C° 0,1 mm 1 mps 651 mmHg 89%
23:00 +16°C° 0,1 mm 1 mps 651 mmHg 90%
Show more

We Need Your Consent

Meteoprog and our Service Providers may store and access personal data such as cookies, device identifiers or other similar technologies on your device and process such data to personalise content and ads, as well as provide social media features and to analyse the traffic.

  • Store and/or access information on your device

    Cookies, device identifiers or other information can be stored or accessed on your device for the purposes indicated above.

  • Personalised ads and content, ad and content measurement, audience insights, and products development

    Ads and content can be personalised based on a profile. More data can be added to better personalise ads and content. Ad and content performance can be measured. Insights about the audience who saw the ads and content can be derived. Such data can be used to develop or improve user’s experience, systems and software.

By clicking ‘I Agree’ you will allow the use of indicated cookies, device identifiers, web beacons or other similar technologies. Your settings can be changed in the browser on your device.

For certain purposes, legitimate interests may be relied on, rather than consent. You can read more about this in our Privacy and Cookie Policy.